User: anonymous   Login
Location: Br�znic
(45.9167°N, 22.6500°E)
Time: 12:49:56
(UTC+00:00)
Language:

Cosmos 2181 Rocket - Orbit

View from above orbital plane
View from above orbital plane
View from above satellite
View from above satellite

Ground track
Ground track

The orbit data is extracted from the following two-line orbital elements,

1 21903U 92012B   21131.77611580  .00000057  00000-0  43338-4 0  9999
2 21903  82.9395 208.4435 0044204  82.4096  36.8706 13.74514423463009
Epoch (UTC): 11 May 2021 18:37:36
Eccentricity: 0.0044204
inclination: 82.9395°
perigee height: 951 km
apogee height: 1016 km
right ascension of ascending node: 208.4435°
argument of perigee: 82.4096°
revolutions per day: 13.74514423
mean anomaly at epoch: 36.8706°
orbit number at epoch: 46300

The dashed part of the orbit path shows where the satellite is in the earth's shadow,  

DLR